Home > Weather > Santander > Past weeks

Flag for Spain Past Weather in Santander, Spain — Yesterday and Last 2 Weeks

Now
70 °F

Passing clouds.


Feels Like: 70 °F
Forecast: 62 / 71 °F
Wind: No wind

Location: Santander / Parayas

Current Time: Jul 26, 2016 at 2:50:42 AM

Latest Report: Jul 26, 2016 at 2:00 AM


Visibility: N/A

Pressure: 30.21 "Hg

Humidity: 83%

Dew Point: 64 °F

Location of SantanderLocation

Past Weather in Santander — Graph

°F

Santander Temperature Yesterday

Maximum temperature yesterday: 73 °F (at 12:30 PM)
Minimum temperature yesterday: 59 °F (at 5:30 AM)
Average temperature yesterday: 68 °F

High & Low Weather Summary for the Past Weeks

 TemperatureHumidityPressure
High88 °F (Jul 18, 5:30 PM)100% (Jul 11, 1:30 AM)30.36 "Hg (Jul 11, 1:30 AM)
Low54 °F (Jul 15, 5:00 AM)33% (Jul 19, 3:00 PM)29.86 "Hg (Jul 18, 6:30 PM)
Average68 °F75%30.14 "Hg
* Reported Jul 11 1:30 AM — Jul 26 1:30 AM, Santander, Weather by CustomWeather, © 2016

Note: Actual official high and low records may vary slightly from our data, if they occured in-between our weather recording intervals... More about our weather records

Advertising

Santander Weather History for the Previous 24 Hours

Scroll right to see more
 ConditionsComfort  
Time TempWeatherWind HumidityBarometerVisibility
1:30 AM
Tue, Jul 26
70 °FPassing clouds.No wind83%30.21 "HgN/A
1:00 AM70 °FOvercast.No wind83%30.21 "HgN/A
12:30 AM70 °FPartly cloudy.2 mph83%30.21 "HgN/A
12:00 AM70 °FOvercast.No wind88%30.21 "HgN/A
11:30 PM
Mon, Jul 25
70 °FOvercast.2 mph83%30.21 "HgN/A
11:00 PM72 °FPassing clouds.No wind83%30.21 "HgN/A
10:30 PM70 °FPartly sunny.1 mph83%30.21 "HgN/A
10:00 PM70 °FPartly sunny.2 mph88%30.21 "HgN/A
9:30 PM70 °FPartly sunny.3 mph83%30.21 "HgN/A
9:00 PM72 °FPartly sunny.6 mph78%30.21 "HgN/A
8:30 PM72 °FPartly sunny.6 mph78%30.18 "HgN/A
8:00 PM72 °FPartly sunny.7 mph78%30.18 "HgN/A
7:30 PM72 °FPartly sunny.5 mph78%30.18 "HgN/A
7:00 PM73 °FPartly sunny.6 mph78%30.18 "HgN/A
6:30 PM73 °FScattered clouds.6 mph74%30.18 "HgN/A
6:00 PM73 °FScattered clouds.8 mph74%30.18 "HgN/A
5:30 PM73 °FScattered clouds.8 mph78%30.18 "HgN/A
5:00 PM73 °FPassing clouds.9 mph74%30.18 "HgN/A
4:30 PM73 °FPassing clouds.9 mph74%30.18 "HgN/A
4:00 PM73 °FPassing clouds.10 mph74%30.18 "HgN/A
3:30 PM73 °FPassing clouds.9 mph74%30.18 "HgN/A
3:00 PM73 °FPassing clouds.9 mph74%30.18 "HgN/A
2:30 PM73 °FPassing clouds.9 mph69%30.18 "HgN/A
2:00 PM73 °FScattered clouds.10 mph74%30.18 "HgN/A
1:30 PM73 °FPassing clouds.9 mph74%30.18 "HgN/A
1:00 PM73 °FPassing clouds.9 mph69%30.18 "HgN/A
12:30 PM73 °FPassing clouds.7 mph69%30.18 "HgN/A
12:00 PM72 °FPassing clouds.6 mph73%30.18 "HgN/A
11:30 AM72 °FPassing clouds.3 mph69%30.18 "HgN/A
11:00 AM70 °FPassing clouds.2 mph73%30.18 "HgN/A
10:30 AM70 °FPassing clouds.1 mph73%30.18 "HgN/A
10:00 AM68 °FPassing clouds.1 mph78%30.18 "HgN/A
9:30 AM66 °FPassing clouds.No wind83%30.18 "HgN/A
9:00 AM64 °FPassing clouds.No wind88%30.18 "HgN/A
8:30 AM63 °FPassing clouds.No wind88%30.18 "HgN/A
8:00 AM61 °FScattered clouds.No wind94%30.18 "HgN/A
7:30 AM59 °FPassing clouds.No wind94%30.18 "HgN/A
7:00 AM59 °FPassing clouds.1 mph94%30.18 "HgN/A
6:30 AM59 °FPassing clouds.No wind94%30.18 "HgN/A
6:00 AM59 °FClear.No wind94%30.18 "Hg10 mi
5:30 AM59 °FClear.No wind94%30.18 "Hg10 mi
5:00 AM61 °FCool.No wind88%30.18 "Hg5 mi
4:30 AM61 °FCool.1 mph88%30.18 "Hg6 mi
4:00 AM61 °FCool.No wind94%30.18 "Hg4 mi
3:30 AM61 °FCool.1 mph94%30.18 "Hg6 mi
3:00 AM63 °FMild.No wind88%30.21 "Hg4 mi
2:30 AM63 °FMild.1 mph88%30.21 "HgN/A
2:00 AM63 °FMild.No wind88%30.21 "HgN/A
Weather by CustomWeather, © 2016

See weather overviewHow to use our weather pages